Meteopurmerend
purmerend
Purmerend - Baaienwijk



My webcam  My webcam


waarschuwing voor Onweer Meer informatie blitzortung!


Regen radar Meer informatie rain snow radar


Bezoek onze andere website:

CandyAppleRed WebdesignWebdesign Purmerend Candy Apple Red

MeteopurmerendBlog

Template documentation
and downloads



Onweer van: 26-07-2021 13:00 tot: 21:00 waarschuwing voor: Onweer niveau: Geel info button
Enkele onweersbuien, lokaal met hagel en veel neerslag in korte tijd.Kans op blikseminslag, hagel en veel neerslag in korte tijd.Verkeer en buitenactiviteiten kunnen hinder ondervinden.Mijd open water en open gebied, schuil niet onder bomen.Volg weerberichten en waarschuwingen.

15 daagse weersverwachting Aalborg (DK)

  • Overzicht
  • Per uur
  • 15 dagen
  • Extra
  • Vergelijk
  • Kaarten
  • Dagkaart
  • Meer »
  • Info
  • Statistieken
  • Directe link
    Temp 6h Neerslag Wind  
 05:11     21:45    Daglengte: 16:34 Vandaag
20:00
22°
1.9 mm
4
warningclass
 05:13     21:43    Daglengte: 16:30 Morgen
02:00
19°
 
2
08:00
20°
 
3
14:00
23°
3.3 mm
3
warningclass
20:00
21°
24.3 mm
3
warningclass
 05:14     21:41    Daglengte: 16:27 Woensdag 28 Jul
02:00
17°
 
3
08:00
17°
 
3
14:00
21°
23.8 mm
4
20:00
19°
37.6 mm
2
 05:16     21:39    Daglengte: 16:23 Donderdag 29 Jul
02:00
16°
31.0 mm
4
08:00
16°
 
5
Locatie info
Region: Nordjylland
Latitude: 57.0494°N
Longitude: 9.9163°E
10 masl
Postcode: 9000
Temp/Neerslag /Baro Onweer/Dauwpunt
    Temp Baro 1h Neerslag Dauwpunt Wind UV Bewolking  
 05:11     21:45    Daglengte: 16:34 Vandaag
16:00
23°
1011.1 hPa
48%
19.6°
5
Windvlaag: 4.5 m/s
84%
17:00
23°
1010.9 hPa 0.9 mm
78%
18.4°
5
Windvlaag: 4.8 m/s
84%
18:00
23°
1010.7 hPa 0.2 mm
78%
17.2°
5
Windvlaag: 5 m/s
84%
19:00
22°
1010.4 hPa 0.8 mm
78%
16.4°
5
Windvlaag: 4.8 m/s
83% warningclass
20:00
22°
1010.0 hPa
81%
17.4°
4
Windvlaag: 5.8 m/s
70%
21:00
21°
1010.1 hPa
73%
17.9°
4
Windvlaag: 5.1 m/s
81%
22:00
21°
1010.2 hPa
29%
17.6°
3
Windvlaag: 3.4 m/s
66%
23:00
20°
1010.3 hPa
76%
18.0°
3
Windvlaag: 1.8 m/s
67%
 05:13     21:43    Daglengte: 16:30 Morgen
00:00
20°
1010.1 hPa
69%
18.2°
2
Windvlaag: 2.7 m/s
55%
01:00
19°
1009.8 hPa
17%
18.1°
2
Windvlaag: 1.4 m/s
49%
02:00
19°
1009.7 hPa
66%
18.2°
2
Windvlaag: 1.3 m/s
49%
03:00
19°
1009.6 hPa
33%
18.3°
2
Windvlaag: -0.3 m/s
58%
04:00
19°
1009.2 hPa
17%
18.3°
2
Windvlaag: -0.7 m/s
52%
05:00
19°
1008.7 hPa
51%
18.2°
2
Windvlaag: -0.2 m/s
58%
06:00
19°
1008.2 hPa
14%
18.4°
2
Windvlaag: -0.3 m/s
83%
07:00
19°
1008.3 hPa
16%
18.1°
2
Windvlaag: 0.6 m/s
86%
08:00
20°
1008.1 hPa
21%
17.9°
3
Windvlaag: 2.1 m/s
85%
09:00
21°
1008.0 hPa
77%
17.9°
3
Windvlaag: 3.5 m/s
66%
10:00
21°
1008.1 hPa 0.7 mm
82%
17.2°
3
Windvlaag: 3.5 m/s
57% warningclass
11:00
21°
1008.0 hPa 0.9 mm
82%
18.6°
3
Windvlaag: 3.1 m/s
76% warningclass
12:00
22°
1007.7 hPa 0.8 mm
82%
19.0°
2
Windvlaag: 3.8 m/s
59% warningclass
13:00
23°
1007.5 hPa
82%
18.6°
2
Windvlaag: 4.3 m/s
72%
14:00
23°
1007.3 hPa 0.9 mm
82%
16.0°
3
Windvlaag: 5 m/s
51% warningclass
15:00
23°
1007.1 hPa
82%
16.0°
3
Windvlaag: 6.1 m/s
56%
16:00
22°
1007.1 hPa 6.1 mm
82%
15.4°
3
Windvlaag: 5 m/s
51% warningclass
17:00
22°
1006.9 hPa 6.1 mm
82%
15.2°
3
Windvlaag: 4.7 m/s
49% warningclass
18:00
22°
1006.7 hPa 5.9 mm
82%
15.0°
3
Windvlaag: 5.1 m/s
42% warningclass
19:00
21°
1006.7 hPa 6.2 mm
82%
15.1°
3
Windvlaag: 5.1 m/s
35% warningclass
20:00
21°
1006.6 hPa
82%
15.6°
3
Windvlaag: 3.6 m/s
29% warningclass
21:00
20°
1006.7 hPa
82%
15.5°
3
Windvlaag: 3.3 m/s
50% warningclass
22:00
19°
1007.0 hPa
81%
15.5°
3
Windvlaag: 3.5 m/s
13%
23:00
18°
1007.0 hPa
37%
15.8°
3
Windvlaag: 3.6 m/s
19%
 05:14     21:41    Daglengte: 16:27 Woensdag 28 Jul
00:00
18°
1007.1 hPa
24%
16.1°
3
Windvlaag: 4.4 m/s
38%
01:00
17°
1007.0 hPa
14%
15.8°
3
Windvlaag: 5 m/s
55%
02:00
17°
1006.8 hPa
19%
15.4°
3
Windvlaag: 5.1 m/s
69%
03:00
17°
1006.6 hPa
18%
15.6°
3
Windvlaag: 5.5 m/s
58%
04:00
17°
1006.5 hPa
16%
15.5°
3
Windvlaag: 5.4 m/s
52%
05:00
16°
1006.2 hPa
17%
15.4°
3
Windvlaag: 4.5 m/s
47%
06:00
16°
1006.3 hPa
14%
15.3°
3
Windvlaag: 4.6 m/s
62%
07:00
16°
1006.2 hPa
14%
15.5°
3
Windvlaag: 4.6 m/s
78%
08:00
17°
1006.0 hPa
14%
15.6°
3
Windvlaag: 3.5 m/s
69%
09:00
18°
1005.9 hPa
17%
15.7°
4
Windvlaag: 5.8 m/s
61%
10:00
19°
1005.6 hPa
33%
15.1°
4
Windvlaag: 6.3 m/s
34%
11:00
19°
1005.4 hPa
42%
15.9°
4
Windvlaag: 6.7 m/s
67%
12:00
20°
1005.1 hPa 9.1 mm
94%
15.1°
4
Windvlaag: 7.3 m/s
76%
13:00
20°
1004.8 hPa 9.1 mm
99%
14.3°
4
Windvlaag: 7.3 m/s
37%
14:00
21°
1004.5 hPa 5.6 mm
100%
13.0°
4
Windvlaag: 7 m/s
56%
15:00
21°
1004.4 hPa 5.6 mm
100%
12.2°
4
Windvlaag: 6.8 m/s
44%
16:00
21°
1004.1 hPa 9.4 mm
100%
12.0°
4
Windvlaag: 6.7 m/s
79%
17:00
20°
1003.9 hPa 6.0 mm
100%
15.4°
4
Windvlaag: 6.8 m/s
73%
18:00
19°
1003.9 hPa 6.1 mm
100%
17.0°
4
Windvlaag: 7.1 m/s
99%
19:00
19°
1003.4 hPa 10.4 mm
100%
14.5°
3
Windvlaag: 7 m/s
71%
20:00
19°
1003.1 hPa
99%
13.4°
2
Windvlaag: 4.8 m/s
75%
21:00
18°
1003.0 hPa
57%
14.8°
3
Windvlaag: 5.8 m/s
77%
22:00
18°
1002.7 hPa 10.1 mm
94%
15.4°
3
Windvlaag: 7 m/s
68%
23:00
17°
1002.3 hPa 10.1 mm
84%
15.6°
3
Windvlaag: 6.8 m/s
87%
 05:16     21:39    Daglengte: 16:23 Donderdag 29 Jul
00:00
17°
1001.9 hPa
59%
15.9°
4
Windvlaag: 6.9 m/s
81%
01:00
17°
1001.7 hPa 10.8 mm
100%
15.3°
4
Windvlaag: 8.7 m/s
84%
02:00
16°
1001.4 hPa
85%
14.8°
4
Windvlaag: 9.3 m/s
85%
03:00
16°
1000.9 hPa
35%
14.6°
4
Windvlaag: 9.2 m/s
92%
04:00
16°
1000.6 hPa
27%
14.4°
4
Windvlaag: 7.5 m/s
60%
05:00
15°
1000.3 hPa
24%
14.3°
4
Windvlaag: 7.7 m/s
62%
06:00
15°
999.9 hPa
23%
14.2°
4
Windvlaag: 8.1 m/s
54%
07:00
15°
999.8 hPa
22%
14.3°
4
Windvlaag: 8 m/s
81%
08:00
16°
999.1 hPa
21%
13.6°
5
Windvlaag: 7.8 m/s
69%
09:00
17°
997.7 hPa
24%
13.0°
6
Windvlaag: 10.3 m/s
18%
10:00
18°
997.4 hPa
35%
11.9°
6
Windvlaag: 9.7 m/s
20%
11:00
19°
997.1 hPa
84%
12.1°
6
Windvlaag: 10.4 m/s
19%
12:00
18°
997.2 hPa
99%
14.9°
7
Windvlaag: 15.6 m/s
19%
13:00
18°
997.4 hPa 12.1 mm
100%
15.8°
7
Windvlaag: 11.3 m/s
66%
14:00
18°
997.3 hPa
100%
12.7°
7
Windvlaag: 10.5 m/s
51%
Temp/Neerslag /Baro Onweer/Dauwpunt
    Temp Baro Neerslag Dauwpunt Wind Bewolking  
 05:11     21:45    Daglengte: 16:34 Vandaag
17:00
23°
1010.9 hPa 0.9 mm 18.4°
5
84%
20:00
22°
1010.0 hPa 1.0 mm 17.4°
4
70% warningclass
23:00
20°
1010.3 hPa   18.0°
3
67%
 05:13     21:43    Daglengte: 16:30 Morgen
02:00
19°
1009.7 hPa   18.2°
2
49%
05:00
19°
1008.7 hPa   18.2°
2
58%
08:00
20°
1008.1 hPa   17.9°
3
85%
11:00
21°
1008.0 hPa 1.6 mm 18.6°
3
76% warningclass
14:00
23°
1007.3 hPa 1.7 mm 16.0°
3
51% warningclass
17:00
22°
1006.9 hPa 12.2 mm 15.2°
3
49% warningclass
20:00
21°
1006.6 hPa 12.1 mm 15.6°
3
29% warningclass
23:00
18°
1007.0 hPa   15.8°
3
19%
 05:14     21:41    Daglengte: 16:27 Woensdag 28 Jul
02:00
17°
1006.8 hPa   15.4°
3
69%
05:00
16°
1006.2 hPa   15.4°
3
47%
08:00
17°
1006.0 hPa   15.6°
3
69%
11:00
19°
1005.4 hPa   15.9°
4
67%
14:00
21°
1004.5 hPa 23.8 mm 13.0°
4
56%
17:00
20°
1003.9 hPa 21.0 mm 15.4°
4
73%
20:00
19°
1003.1 hPa 16.6 mm 13.4°
2
75%
23:00
17°
1002.3 hPa 20.2 mm 15.6°
3
87%
 05:16     21:39    Daglengte: 16:23 Donderdag 29 Jul
02:00
16°
1001.4 hPa 10.8 mm 14.8°
4
85%
05:00
15°
1000.3 hPa   14.3°
4
62%
08:00
16°
999.1 hPa   13.6°
5
69%
11:00
19°
997.1 hPa   12.1°
6
19%
14:00
18°
997.3 hPa 35.5 mm 12.7°
7
51%
17:00
14°
994.6 hPa 32.8 mm 12.5°
5
1%
20:00
15°
997.4 hPa 33.1 mm 12.1°
7
1%
23:00
14°
997.7 hPa 33.6 mm 12.6°
7
1%
 05:18     21:37    Daglengte: 16:19 Vrijdag 30 Jul
02:00
13°
997.0 hPa 33.6 mm 12.5°
7
1%
05:00
14°
995.9 hPa 33.8 mm 13.3°
7
1%
08:00
16°
996.9 hPa 34.1 mm 13.8°
9
1%
11:00
18°
997.6 hPa 34.4 mm 13.6°
11
1%
14:00
17°
998.2 hPa 35.0 mm 14.6°
10
1%
17:00
18°
998.8 hPa 35.3 mm 12.1°
11
1%
20:00
16°
999.4 hPa 35.3 mm 12.1°
10
1%
23:00
15°
1000.5 hPa 35.3 mm 11.6°
9
1%
 05:20     21:34    Daglengte: 16:14 Zaterdag 31 Jul
02:00
14°
1000.9 hPa 35.3 mm 11.4°
8
1%
05:00
14°
1000.5 hPa 35.3 mm 11.2°
7
1%
08:00
16°
1000.7 hPa 35.3 mm 11.2°
7
1%
11:00
18°
1001.2 hPa 35.3 mm 11.1°
8
1%
14:00
20°
1000.9 hPa 35.3 mm 10.9°
7
1%
17:00
19°
1000.7 hPa 35.3 mm 10.8°
6
1%
20:00
16°
999.8 hPa 35.3 mm 10.6°
4
1%
23:00
13°
999.6 hPa 35.3 mm 9.8°
4
1%
 05:22     21:32    Daglengte: 16:10 Zondag 01 Aug
02:00
12°
999.1 hPa 35.3 mm 9.7°
4
1%
05:00
12°
998.6 hPa 35.3 mm 8.5°
5
1%
08:00
15°
998.6 hPa 35.4 mm 9.8°
6
1%
11:00
17°
998.8 hPa 35.5 mm 7.8°
9
1%
14:00
17°
999.6 hPa 36.5 mm 10.6°
8
1%
17:00
17°
1000.1 hPa 36.6 mm 7.8°
9
0%
20:00
15°
1000.1 hPa 36.8 mm 8.1°
8
0%
23:00
14°
999.9 hPa 36.9 mm 9.4°
8
0%
 05:24     21:30    Daglengte: 16:06 Maandag 02 Aug
02:00
14°
999.5 hPa 36.9 mm 8.2°
8
0%
05:00
14°
999.6 hPa 36.9 mm 7.5°
9
1%
08:00
15°
1000.4 hPa 36.9 mm 7.6°
11
1%
11:00
17°
1001.9 hPa 36.9 mm 6.6°
12
1%
14:00
17°
1003.5 hPa 73.8 mm 7.1°
11
1%
20:00
15°
1005.0 hPa 73.9 mm 6.4°
10
0%
 05:26     21:28    Daglengte: 16:02 Dinsdag 03 Aug
02:00
14°
1006.9 hPa 73.9 mm 6.5°
8
1%
08:00
15°
1007.6 hPa 74.0 mm 6.9°
7
1%
14:00
18°
1008.5 hPa 75.3 mm 9.3°
8
1%
20:00
16°
1008.6 hPa 76.7 mm 9.3°
6
1%
 05:28     21:26    Daglengte: 15:58 Woensdag 04 Aug
02:00
13°
1007.9 hPa 76.8 mm 10.9°
5
1%
08:00
15°
1004.3 hPa 78.9 mm 13.5°
6
1%
14:00
16°
1002.2 hPa 96.5 mm 14.3°
6
1%
20:00
16°
1000.1 hPa 100.8 mm 13.2°
8
1%
 05:30     21:24    Daglengte: 15:54 Donderdag 05 Aug
02:00
13°
999.0 hPa 102.8 mm 11.7°
6
0%
08:00
15°
996.2 hPa 105.2 mm 12.9°
8
1%
14:00
19°
1007.9 hPa 1.2 mm 12.0°
3
70%
20:00
17°
1006.9 hPa 1.2 mm 12.0°
2
70%
 05:32     21:21    Daglengte: 15:49 Vrijdag 06 Aug
02:00
14°
1006.4 hPa 0.4 mm 11.6°
2
61%
08:00
16°
1005.3 hPa 0.5 mm 12.3°
2
63%
14:00
19°
1005.1 hPa 1.5 mm 12.1°
1
62%
20:00
17°
1003.9 hPa 2.4 mm 12.6°
1
71%
 05:34     21:19    Daglengte: 15:45 Zaterdag 07 Aug
02:00
14°
1003.7 hPa 0.8 mm 11.8°
1
62%
08:00
15°
1003.5 hPa 0.4 mm 12.3°
1
58%
14:00
20°
1003.9 hPa 1.4 mm 12.3°
1
58%
20:00
17°
1003.6 hPa 1.3 mm 12.4°
1
64%
 05:36     21:17    Daglengte: 15:41 Zondag 08 Aug
02:00
14°
1003.8 hPa 0.4 mm 12.1°
2
61%
08:00
15°
1003.7 hPa 0.1 mm 12.4°
2
60%
14:00
19°
1004.8 hPa 1.6 mm 12.3°
3
71%
20:00
17°
1005.1 hPa 1.4 mm 12.5°
3
65%
 05:38     21:14    Daglengte: 15:36 Maandag 09 Aug
02:00
13°
1005.9 hPa 0.6 mm 11.7°
3
53%
08:00
15°
1006.1 hPa 0.4 mm 12.1°
2
64%
14:00
19°
1007.4 hPa 0.4 mm 11.8°
3
68%
20:00
17°
1007.7 hPa 0.2 mm 11.9°
3
61%
 05:40     21:12    Daglengte: 15:32 Dinsdag 10 Aug
02:00
14°
1008.5 hPa 0.3 mm 11.4°
3
61%
08:00
15°
1008.7 hPa 0.3 mm 11.8°
4
60%
14:00
19°
1009.9 hPa 0.7 mm 11.5°
4
68%
  CAPE Lifted Index Hail Supercell Tornado SRH 3km CL BTM PRES CL TOP PRES Swiss DWD icon SMHI TS
 05:11     21:45    Daglengte: 16:34 Vandaag
16:00 593 J/kg -2.4 K 0 % 0 % 0 % 0 m²/s² 0 0 -2.37 3
17:00 220 J/kg -1.4 K 0 % 0 % 0 % 0 m²/s² 0 0 -0.44 80
18:00 655 J/kg -2.9 K 0 % 0 % 0 % 0 m²/s² 0 0 -1.94 3
19:00 810 J/kg -3.0 K 0 % 0 % 0 % 0 m²/s² 0 0 -2.52 80
20:00 819 J/kg -2.8 K 0 % 0 % 0 % 0 m²/s² 0 0 -2.26 61
21:00 1021 J/kg -3.8 K 0 % 0 % 0 % 0 m²/s² 0 0 -3.77 3
22:00 959 J/kg -3.4 K 0 % 0 % 0 % 0 m²/s² 0 0 -2.83 3
23:00 526 J/kg -2.1 K 0 % 0 % 0 % 0 m²/s² 0 0 -1.38 3
 05:13     21:43    Daglengte: 16:30 Morgen
00:00 381 J/kg -2.4 K 0 % 0 % 0 % 0 m²/s² 0 0 -1.77 3
01:00 335 J/kg -0.8 K 0 % 0 % 0 % 0 m²/s² 0 0 0.19 3
02:00 415 J/kg -1.6 K 0 % 0 % 0 % 0 m²/s² 0 0 -0.22 3
03:00 529 J/kg -2.2 K 0 % 0 % 0 % 0 m²/s² 0 0 -1.39 3
04:00 557 J/kg -3.1 K 0 % 0 % 0 % 0 m²/s² 0 0 -1.99 3
05:00 723 J/kg -3.5 K 0 % 0 % 0 % 0 m²/s² 0 0 -2.36 3
06:00 939 J/kg -3.5 K 0 % 0 % 0 % 0 m²/s² 0 0 -2.36 3
07:00 1174 J/kg -4.4 K 0 % 0 % 0 % 0 m²/s² 0 0 -3.08 3
08:00 1321 J/kg -4.5 K 0 % 0 % 0 % 0 m²/s² 0 0 -3.3 3
09:00 1384 J/kg -4.9 K 0 % 0 % 0 % 0 m²/s² 0 0 -3.58 3
10:00 1453 J/kg -5.3 K 0 % 0 % 0 % 0 m²/s² 0 0 -4.55 80
11:00 1184 J/kg -4.9 K 0 % 0 % 0 % 0 m²/s² 0 0 -4.15 95
12:00 1201 J/kg -4.6 K 0 % 0 % 0 % 0 m²/s² 0 0 -3.34 80
13:00 1535 J/kg -5.2 K 0 % 0 % 0 % 0 m²/s² 0 0 -3.73 3
14:00 1581 J/kg -5.1 K 0 % 0 % 0 % 0 m²/s² 0 0 -3.27 3
15:00 1219 J/kg -3.9 K 0 % 0 % 0 % 0 m²/s² 0 0 -3.87 3
16:00 1108 J/kg -3.8 K 0 % 0 % 0 % 0 m²/s² 0 0 -2.9 95
17:00 1304 J/kg -4.5 K 0 % 0 % 0 % 0 m²/s² 0 0 -3.18 95
18:00 1255 J/kg -4.0 K 0 % 0 % 0 % 0 m²/s² 0 0 -2.65 95
19:00 854 J/kg -3.1 K 0 % 0 % 0 % 0 m²/s² 0 0 -1.57 95
20:00 436 J/kg -2.0 K 0 % 0 % 0 % 0 m²/s² 0 0 0.16 95
21:00 120 J/kg -0.8 K 0 % 0 % 0 % 0 m²/s² 0 0 1.87 95
22:00 20 J/kg -0.3 K 0 % 0 % 0 % 0 m²/s² 0 0 2.13 80
23:00 0 J/kg 0.8 K 0 % 0 % 0 % 0 m²/s² 0 0 3.08 2
 05:14     21:41    Daglengte: 16:27 Woensdag 28 Jul
00:00 0 J/kg 1.6 K 0 % 0 % 0 % 0 m²/s² 0 0 4.03 3
01:00 0 J/kg 1.9 K 0 % 0 % 0 % 0 m²/s² 0 0 4.54 3
02:00 0 J/kg 2.5 K 0 % 0 % 0 % 0 m²/s² 0 0 6.07 3
03:00 0 J/kg 3.4 K 0 % 0 % 0 % 0 m²/s² 0 0 7.27 3
04:00 0 J/kg 4.0 K 0 % 0 % 0 % 0 m²/s² 0 0 7.48 2
05:00 1 J/kg 2.8 K 0 % 0 % 0 % 0 m²/s² 0 0 5.92 3
06:00 2 J/kg 1.9 K 0 % 0 % 0 % 0 m²/s² 0 0 4.63 3
07:00 2 J/kg 1.6 K 0 % 0 % 0 % 0 m²/s² 0 0 3.67 3
08:00 2 J/kg 0.9 K 0 % 0 % 0 % 0 m²/s² 0 0 2.85 3
09:00 5 J/kg 1.6 K 0 % 0 % 0 % 0 m²/s² 0 0 3.28 3
10:00 5 J/kg 2.5 K 0 % 0 % 0 % 0 m²/s² 0 0 3.85 2
11:00 0 J/kg 1.8 K 0 % 0 % 0 % 0 m²/s² 0 0 2.4 3
12:00 45 J/kg 1.1 K 0 % 0 % 0 % 0 m²/s² 0 0 1.49 2
13:00 124 J/kg 0.5 K 0 % 0 % 0 % 0 m²/s² 0 0 0.83 2
14:00 279 J/kg -0.6 K 0 % 0 % 0 % 0 m²/s² 0 0 -0.27 3
15:00 392 J/kg -1.1 K 0 % 0 % 0 % 0 m²/s² 0 0 -0.86 80
16:00 356 J/kg -1.1 K 0 % 0 % 0 % 0 m²/s² 0 0 -0.89 3
17:00 348 J/kg -1.1 K 0 % 0 % 0 % 0 m²/s² 0 0 -0.92 80
18:00 279 J/kg -1.1 K 0 % 0 % 0 % 0 m²/s² 0 0 -0.92 80
19:00 570 J/kg -1.9 K 0 % 0 % 0 % 0 m²/s² 0 0 -1.33 80
20:00 457 J/kg -1.3 K 0 % 0 % 0 % 0 m²/s² 0 0 -0.46 3
21:00 488 J/kg -1.6 K 0 % 0 % 0 % 0 m²/s² 0 0 -0.46 3
22:00 499 J/kg -1.9 K 0 % 0 % 0 % 0 m²/s² 0 0 -0.67 3
23:00 534 J/kg -2.2 K 0 % 0 % 0 % 0 m²/s² 0 0 -1.06 3
 05:16     21:39    Daglengte: 16:23 Donderdag 29 Jul
00:00 635 J/kg -2.9 K 0 % 0 % 0 % 0 m²/s² 0 0 -1.52 3
01:00 558 J/kg -2.3 K 0 % 0 % 0 % 0 m²/s² 0 0 -0.44 80
02:00 244 J/kg -1.4 K 0 % 0 % 0 % 0 m²/s² 0 0 0.7 3
03:00 270 J/kg -2.0 K 0 % 0 % 0 % 0 m²/s² 0 0 -0.5 3
04:00 406 J/kg -2.3 K 0 % 0 % 0 % 0 m²/s² 0 0 -0.83 2
05:00 295 J/kg -1.7 K 0 % 0 % 0 % 0 m²/s² 0 0 0.85 3
06:00 297 J/kg -1.7 K 0 % 0 % 0 % 0 m²/s² 0 0 0.79 3
07:00 468 J/kg -2.2 K 0 % 0 % 0 % 0 m²/s² 0 0 -0.4 3
08:00 604 J/kg -2.6 K 0 % 0 % 0 % 0 m²/s² 0 0 0.85 3
09:00 694 J/kg -3.2 K 0 % 0 % 0 % 0 m²/s² 0 0 0.82 2
10:00 706 J/kg -3.4 K 0 % 0 % 0 % 0 m²/s² 0 0 0.02 2
11:00 594 J/kg -2.8 K 0 % 0 % 0 % 0 m²/s² 0 0 -0.04 3
12:00 422 J/kg -1.6 K 0 % 0 % 0 % 0 m²/s² 0 0 -0.97 2
13:00 190 J/kg -1.0 K 0 % 0 % 0 % 0 m²/s² 0 0 -0.88 3
14:00 290 J/kg -1.0 K 0 % 0 % 0 % 0 m²/s² 0 0 -0.19 3
Temp Baro Wind Neerslag
  EWN Forecast EWN WRFDA DWD ICON FMI HIRLAM MET Norway GFS
 05:11     21:45    Daglengte: 16:34 Vandaag
17:00 23.1° 1010.9 hPa 4.9 m/s 0.9 mm 26.2° 1009.5 hPa 6.3 m/s 0.1 mm 23.0° 1011.2 hPa 5.0 m/s -1.1 mm 23.2° 1010.4 hPa 4.2 m/s 0.0 mm 20.5° 1010.3 hPa 4.5 m/s
20:00 21.8° 1010.0 hPa 4.4 m/s 1.0 mm 24.9° 1008.5 hPa 5.8 m/s 0.2 mm 21.4° 1010.1 hPa 3.4 m/s 1.7 mm 22.7° 1010.0 hPa 4.3 m/s 0.0 mm 20.8° 1009.3 hPa 4.0 m/s
23:00 20.3° 1010.3 hPa 2.7 m/s 0.0 mm 18.4° 1009.2 hPa 2.3 m/s 2.0 mm 20.6° 1010.2 hPa 3.2 m/s 0.0 mm 20.6° 1010.3 hPa 2.6 m/s 0.0 mm 18.7° 1010.1 hPa 2.8 m/s
 05:13     21:43    Daglengte: 16:30 Morgen
02:00 19.0° 1009.7 hPa 1.6 m/s 0.0 mm 19.2° 1008.7 hPa 2.7 m/s 3.0 mm 19.4° 1009.7 hPa 1.4 m/s 0.0 mm 18.8° 1009.5 hPa 1.5 m/s 0.0 mm 16.8° 1009.7 hPa 1.7 m/s
05:00 18.5° 1008.7 hPa 2.0 m/s 0.0 mm 17.6° 1007.9 hPa 2.5 m/s 3.0 mm 18.6° 1008.8 hPa 2.1 m/s 0.0 mm 18.5° 1008.2 hPa 2.2 m/s 0.0 mm 17.2° 1008.6 hPa 3.5 m/s
08:00 19.9° 1008.1 hPa 2.9 m/s 0.0 mm 20.7° 1007.4 hPa 2.6 m/s 3.0 mm 19.7° 1008.5 hPa 2.8 m/s 0.0 mm 21.2° 1006.9 hPa 4.2 m/s 0.0 mm 20.0° 1008.3 hPa 3.2 m/s
11:00 21.4° 1008.0 hPa 2.6 m/s 1.6 mm 22.0° 1007.2 hPa 2.0 m/s 4.2 mm 21.2° 1008.6 hPa 1.8 m/s 1.1 mm 22.1° 1006.2 hPa 5.2 m/s 0.0 mm 22.4° 1007.7 hPa 2.9 m/s
14:00 23.1° 1007.3 hPa 2.9 m/s 1.7 mm 24.8° 1006.6 hPa 1.9 m/s 8.5 mm 22.6° 1008.1 hPa 2.1 m/s 0.7 mm 24.6° 1006.0 hPa 4.9 m/s 0.0 mm 23.5° 1007.4 hPa 3.6 m/s
17:00 22.4° 1006.9 hPa 2.9 m/s 12.2 mm 22.1° 1006.5 hPa 4.3 m/s 60.8 mm 21.2° 1007.3 hPa 2.3 m/s 3.1 mm 24.5° 1005.8 hPa 4.4 m/s 0.0 mm 21.7° 1006.8 hPa 3.8 m/s
20:00 20.8° 1006.6 hPa 3.0 m/s 12.1 mm 20.0° 1006.8 hPa 4.1 m/s 80.3 mm 19.8° 1007.0 hPa 2.6 m/s 4.8 mm 21.6° 1006.0 hPa 5.1 m/s 0.0 mm 19.8° 1006.8 hPa 4.9 m/s
23:00 18.1° 1007.0 hPa 2.7 m/s 0.0 mm 16.4° 1007.4 hPa 2.4 m/s 80.7 mm 18.1° 1007.2 hPa 3.2 m/s 1.5 mm 18.7° 1006.8 hPa 2.7 m/s 0.0 mm 15.8° 1008.0 hPa 3.5 m/s
 05:14     21:41    Daglengte: 16:27 Woensdag 28 Jul
02:00 17.1° 1006.8 hPa 3.2 m/s 0.0 mm 14.3° 1007.0 hPa 2.0 m/s 80.7 mm 17.2° 1007.0 hPa 3.2 m/s 0.0 mm 17.9° 1006.8 hPa 3.0 m/s 0.0 mm 14.1° 1007.7 hPa 3.0 m/s
05:00 16.5° 1006.2 hPa 3.0 m/s 0.0 mm 14.1° 1005.9 hPa 2.0 m/s 80.7 mm 16.2° 1006.5 hPa 2.9 m/s 0.0 mm 16.8° 1006.2 hPa 3.4 m/s 0.0 mm 13.8° 1007.1 hPa 2.6 m/s
08:00 16.9° 1006.0 hPa 3.3 m/s 0.0 mm 14.8° 1005.9 hPa 2.1 m/s 80.7 mm 17.4° 1006.1 hPa 3.6 m/s 0.0 mm 17.1° 1006.4 hPa 3.6 m/s 0.0 mm 17.3° 1006.5 hPa 2.9 m/s
11:00 18.8° 1005.4 hPa 3.9 m/s 0.0 mm 17.3° 1005.3 hPa 3.3 m/s 80.7 mm 19.8° 1005.4 hPa 4.4 m/s 0.0 mm 21.2° 1006.0 hPa 4.1 m/s
14:00 21.0° 1004.5 hPa 3.7 m/s 23.8 mm 22.1° 1004.5 hPa 3.0 m/s 80.7 mm 21.0° 1004.1 hPa 3.8 m/s 0.2 mm 21.5° 1005.7 hPa 5.2 m/s
17:00 19.9° 1003.9 hPa 4.1 m/s 21.0 mm 19.7° 1004.0 hPa 4.9 m/s 81.5 mm 19.9° 1003.5 hPa 3.7 m/s 0.9 mm 22.4° 1004.7 hPa 3.4 m/s
20:00 18.9° 1003.1 hPa 2.5 m/s 16.6 mm 20.5° 1003.3 hPa 2.4 m/s 88.4 mm 18.9° 1002.1 hPa 2.7 m/s 1.3 mm 17.6° 1004.0 hPa 5.2 m/s
23:00 16.9° 1002.3 hPa 3.1 m/s 20.2 mm 16.9° 1002.4 hPa 3.0 m/s 89.7 mm 17.3° 1001.0 hPa 2.3 m/s 0.3 mm 14.6° 1003.9 hPa 3.5 m/s
 05:16     21:39    Daglengte: 16:23 Donderdag 29 Jul
02:00 16.3° 1001.4 hPa 4.3 m/s 10.8 mm 16.0° 1001.7 hPa 3.8 m/s 92.9 mm 16.4° 999.5 hPa 3.8 m/s 0.6 mm 13.7° 1002.7 hPa 4.3 m/s
05:00 15.1° 1000.3 hPa 4.3 m/s 0.0 mm 14.6° 1000.5 hPa 4.3 m/s 94.6 mm 15.3° 998.5 hPa 4.1 m/s 0.0 mm 12.9° 1000.9 hPa 4.2 m/s
08:00 16.1° 999.1 hPa 5.1 m/s 0.0 mm 16.9° 999.1 hPa 5.4 m/s 95.1 mm 16.0° 997.7 hPa 5.3 m/s 0.0 mm 14.0° 998.7 hPa 5.8 m/s
11:00 18.5° 997.1 hPa 6.5 m/s 0.0 mm 19.0° 997.2 hPa 7.7 m/s 96.1 mm 18.4° 997.1 hPa 6.2 m/s 0.0 mm 16.9° 997.9 hPa 8.2 m/s
14:00 18.0° 997.3 hPa 7.1 m/s 35.5 mm 16.7° 997.4 hPa 6.7 m/s 105.8 mm 18.3° 997.3 hPa 7.2 m/s 0.3 mm 15.8° 997.4 hPa 6.6 m/s
17:00 14.3° 994.6 hPa 4.7 m/s 32.8 mm 14.3° 994.6 hPa 4.7 m/s 32.8 mm
20:00 14.9° 997.4 hPa 6.8 m/s 33.1 mm 14.9° 997.4 hPa 6.8 m/s 33.1 mm
23:00 13.9° 997.7 hPa 6.9 m/s 33.6 mm 13.9° 997.7 hPa 6.9 m/s 33.6 mm
 05:18     21:37    Daglengte: 16:19 Vrijdag 30 Jul
02:00 13.4° 997.0 hPa 6.5 m/s 33.6 mm 13.4° 997.0 hPa 6.5 m/s 33.6 mm
05:00 14.3° 995.9 hPa 7.5 m/s 33.8 mm 14.3° 995.9 hPa 7.5 m/s 33.8 mm
08:00 16.0° 996.9 hPa 9.2 m/s 34.1 mm 16.0° 996.9 hPa 9.2 m/s 34.1 mm
11:00 18.2° 997.6 hPa 11.3 m/s 34.4 mm 18.2° 997.6 hPa 11.3 m/s 34.4 mm
14:00 17.1° 998.2 hPa 9.9 m/s 35.0 mm 17.1° 998.2 hPa 9.9 m/s 35.0 mm
17:00 18.2° 998.8 hPa 10.9 m/s 35.3 mm 18.2° 998.8 hPa 10.9 m/s 35.3 mm
20:00 16.3° 999.4 hPa 9.7 m/s 35.3 mm 16.3° 999.4 hPa 9.7 m/s 35.3 mm
23:00 14.6° 1000.5 hPa 8.6 m/s 35.3 mm 14.6° 1000.5 hPa 8.6 m/s 35.3 mm
 05:20     21:34    Daglengte: 16:14 Zaterdag 31 Jul
02:00 14.3° 1000.9 hPa 8.0 m/s 35.3 mm 14.3° 1000.9 hPa 8.0 m/s 35.3 mm
05:00 13.8° 1000.5 hPa 7.1 m/s 35.3 mm 13.8° 1000.5 hPa 7.1 m/s 35.3 mm
08:00 15.6° 1000.7 hPa 6.8 m/s 35.3 mm 15.6° 1000.7 hPa 6.8 m/s 35.3 mm
11:00 18.2° 1001.2 hPa 7.8 m/s 35.3 mm 18.2° 1001.2 hPa 7.8 m/s 35.3 mm
14:00 19.9° 1000.9 hPa 7.1 m/s 35.3 mm 19.9° 1000.9 hPa 7.1 m/s 35.3 mm
17:00 19.2° 1000.7 hPa 6.0 m/s 35.3 mm 19.2° 1000.7 hPa 6.0 m/s 35.3 mm
20:00 16.5° 999.8 hPa 4.5 m/s 35.3 mm 16.5° 999.8 hPa 4.5 m/s 35.3 mm
23:00 12.8° 999.6 hPa 3.6 m/s 35.3 mm 12.8° 999.6 hPa 3.6 m/s 35.3 mm
 05:22     21:32    Daglengte: 16:10 Zondag 01 Aug
02:00 11.8° 999.1 hPa 4.0 m/s 35.3 mm 11.8° 999.1 hPa 3.9 m/s 35.3 mm
05:00 12.4° 998.6 hPa 4.9 m/s 35.3 mm 12.4° 998.6 hPa 4.9 m/s 35.3 mm
08:00 14.9° 998.6 hPa 6.3 m/s 35.4 mm 14.9° 998.6 hPa 6.3 m/s 35.4 mm
11:00 17.4° 998.8 hPa 8.7 m/s 35.5 mm 17.4° 998.8 hPa 8.7 m/s 35.5 mm
14:00 17.1° 999.6 hPa 8.4 m/s 36.5 mm 17.1° 999.6 hPa 8.4 m/s 36.5 mm
17:00 17.4° 1000.1 hPa 9.3 m/s 36.6 mm 17.4° 1000.1 hPa 9.3 m/s 36.6 mm
20:00 15.2° 1000.1 hPa 8.2 m/s 36.8 mm 15.2° 1000.1 hPa 8.2 m/s 36.8 mm
23:00 13.7° 999.9 hPa 7.7 m/s 36.9 mm 13.7° 999.9 hPa 7.7 m/s 36.9 mm
 05:24     21:30    Daglengte: 16:06 Maandag 02 Aug
02:00 14.4° 999.5 hPa 8.3 m/s 36.9 mm 14.4° 999.5 hPa 8.3 m/s 36.9 mm
05:00 13.9° 999.6 hPa 9.4 m/s 36.9 mm 13.9° 999.6 hPa 9.4 m/s 36.9 mm
08:00 14.8° 1000.4 hPa 10.5 m/s 36.9 mm 14.8° 1000.4 hPa 10.5 m/s 36.9 mm
11:00 16.7° 1001.9 hPa 11.7 m/s 36.9 mm 16.7° 1001.9 hPa 11.7 m/s 36.9 mm
14:00 17.4° 1003.5 hPa 11.1 m/s 36.9 mm 17.4° 1003.5 hPa 11.1 m/s 36.9 mm
20:00 14.8° 1005.0 hPa 9.7 m/s 37.0 mm 14.8° 1005.0 hPa 9.7 m/s 37.0 mm
 05:26     21:28    Daglengte: 16:02 Dinsdag 03 Aug
02:00 13.8° 1006.9 hPa 8.4 m/s 37.0 mm 13.8° 1006.9 hPa 8.4 m/s 37.0 mm
08:00 15.0° 1007.6 hPa 6.7 m/s 37.0 mm 15.0° 1007.6 hPa 6.7 m/s 37.0 mm
14:00 17.6° 1008.5 hPa 7.8 m/s 38.0 mm 17.6° 1008.5 hPa 7.8 m/s 38.0 mm
20:00 16.3° 1008.6 hPa 5.7 m/s 38.4 mm 16.3° 1008.6 hPa 5.7 m/s 38.4 mm
 05:28     21:26    Daglengte: 15:58 Woensdag 04 Aug
02:00 12.6° 1007.9 hPa 4.7 m/s 38.4 mm 12.6° 1007.9 hPa 4.7 m/s 38.4 mm
08:00 14.7° 1004.3 hPa 6.1 m/s 39.7 mm 14.7° 1004.3 hPa 6.1 m/s 39.7 mm
14:00 16.1° 1002.2 hPa 6.3 m/s 48.9 mm 16.1° 1002.2 hPa 6.3 m/s 48.9 mm
20:00 15.9° 1000.1 hPa 8.0 m/s 51.2 mm 15.9° 1000.1 hPa 8.0 m/s 51.2 mm
 05:30     21:24    Daglengte: 15:54 Donderdag 05 Aug
02:00 12.7° 999.0 hPa 6.4 m/s 51.4 mm 12.7° 999.0 hPa 6.4 m/s 51.4 mm
08:00 15.1° 996.2 hPa 8.2 m/s 53.2 mm 15.1° 996.2 hPa 8.2 m/s 53.2 mm
14:00 19.1° 1007.9 hPa 2.6 m/s 1.2 mm
20:00 17.3° 1006.9 hPa 1.7 m/s 1.2 mm
 05:32     21:21    Daglengte: 15:49 Vrijdag 06 Aug
02:00 13.8° 1006.4 hPa 1.7 m/s 0.4 mm
08:00 15.5° 1005.3 hPa 1.6 m/s 0.5 mm
14:00 19.5° 1005.1 hPa 1.1 m/s 1.5 mm
20:00 17.2° 1003.9 hPa 0.8 m/s 2.4 mm
 05:34     21:19    Daglengte: 15:45 Zaterdag 07 Aug
02:00 13.6° 1003.7 hPa 1.4 m/s 0.8 mm
08:00 15.4° 1003.5 hPa 0.9 m/s 0.4 mm
14:00 19.6° 1003.9 hPa 0.6 m/s 1.4 mm
20:00 17.2° 1003.6 hPa 1.4 m/s 1.3 mm
 05:36     21:17    Daglengte: 15:41 Zondag 08 Aug
02:00 14.1° 1003.8 hPa 1.7 m/s 0.4 mm
08:00 15.4° 1003.7 hPa 2.4 m/s 0.1 mm
14:00 19.2° 1004.8 hPa 2.7 m/s 1.6 mm
20:00 16.9° 1005.1 hPa 3.4 m/s 1.4 mm
 05:38     21:14    Daglengte: 15:36 Maandag 09 Aug
02:00 13.5° 1005.9 hPa 2.7 m/s 0.6 mm
08:00 15.0° 1006.1 hPa 2.1 m/s 0.4 mm
14:00 19.2° 1007.4 hPa 2.9 m/s 0.4 mm
20:00 16.9° 1007.7 hPa 3.2 m/s 0.2 mm
 05:40     21:12    Daglengte: 15:32 Dinsdag 10 Aug
02:00 13.5° 1008.5 hPa 3.2 m/s 0.3 mm
08:00 15.2° 1008.7 hPa 3.5 m/s 0.3 mm
14:00 19.1° 1009.9 hPa 3.8 m/s 0.7 mm
FMI Hirlam - 7.5 km EWN WRFDA - 12 km DWD ICON - 7 km GFS - 25 km Basiskaart